Погода в Белгородском

Россия / Еврейская автономная область     48°35′44″N   133°43′33″E
темп.,
°C
ветер,
м/с
пор.,
м/с
влажн.,
%
обл.,
%
осадки,
мм/ч
давл.,
гПа
погр.,
м
24 января, пн
пн2401:00−32в00100100 0.0 10269
04:00−33ссв11100100 0.0 10279
07:00−34ююз1110099 0.0 10279
10:00−32юз1110089 0.0 102712
13:00−22юз23948 0.0 1025138
16:00−20ю23945 0.0 102462
19:00−26ююв221005 0.0 102510
22:00−28св2210060 0.0 10259
25 января, вт
вт2501:00−30св2210087 0.0 102510
04:00−31св2210097 0.0 102613
07:00−32св22100100 0.0 102610
10:00−29св11100100 0.1 102632
13:00−22всв119797 0.0 1025107
16:00−20юв0095100 0.0 102457
19:00−23ссв0099100 0.0 10249
22:00−23с0099100 0.0 10249
26 января, ср
ср2601:00−25с0010081 0.0 10249
04:00−25юз00100100 0.0 10249
07:00−27з0010066 0.0 10239
10:00−26зсз0010090 0.0 102412
13:00−19зюз119386 0.0 1024135
16:00−18ююз119476 0.0 102327
19:00−24ю1110011 0.0 10249
22:00−27ю1110073 0.0 10249
27 января, чт
чт2701:00−28всв11100100 0.0 10259
04:00−28св11100100 0.1 10259
07:00−28ссз1110098 0.1 10259
10:00−26зсз1110097 0.1 102526
13:00−21зюз229575 0.0 1024143
16:00−19юз239519 0.0 1023101
19:00−25ю3310080 0.0 102229
22:00−26юз229938 0.0 102117
28 января, пт
пт2801:00−28з2210099 0.0 101923
04:00−29зюз2210091 0.0 101815
07:00−24з2396100 0.0 101671
10:00−20з259280 0.0 1015128
13:00−17з358814 0.0 1014253
16:00−18юз119364 0.0 101314
19:00−21з119898 0.0 101310
22:00−25з2210056 0.0 101311